CAPE
0 0 0 0 0 0 0 0 0 0 0 0 0 0 0 0 0 1 0 0 0 0 4 1 3 2 6 3 4 4 1 0 1 7 0 283 525 485 547 324 169 44 54
0 0 0 0 0 0 0 0 0 0 0 0 0 0 0 0 0 0 1 0 0 0 0 2 4 0 2 1 2 0 0 5 7 11 4 157 276 11 0 358 228 134 47
0 0 0 0 0 0 0 0 0 0 0 0 0 0 0 0 0 0 0 0 0 0 0 0 1 0 0 0 2 11 1 4 0 0 6 13 14 1 3 33 5 5 0
0 0 0 0 0 0 0 0 0 0 0 0 0 0 0 0 0 0 0 0 0 0 0 0 0 0 0 0 0 0 2 3 3 0 7 11 11 19 15 0 0 0 17
0 0 0 0 0 0 0 0 0 0 0 0 0 0 0 0 0 0 0 0 0 0 0 0 0 0 0 0 0 0 0 0 4 6 0 2 0 2 23 17 0 0 0
0 0 0 0 0 0 0 0 0 0 0 0 0 0 0 0 0 0 0 0 0 0 0 0 0 0 0 0 0 0 0 0 0 0 1 0 4 5 23 13 7 5 0
0 0 0 0 0 0 0 0 0 0 0 0 0 0 0 0 0 0 0 0 0 0 0 0 0 0 0 0 0 0 0 0 0 0 4 0 1 7 17 9 24 21 0
0 0 0 0 0 0 0 0 0 0 0 0 0 0 0 0 0 0 0 0 0 0 0 0 0 0 0 0 0 0 0 0 0 0 0 0 0 1 0 20 7 0 0
0 0 0 0 0 0 0 0 0 0 0 0 0 0 0 0 0 0 0 0 0 0 0 0 0 0 0 0 0 0 0 0 0 0 0 0 0 0 0 0 4 5 7
0 0 0 0 0 0 0 0 0 0 0 0 0 0 0 0 0 0 0 0 0 0 0 0 0 0 0 0 0 0 0 0 0 0 0 0 0 0 0 1 2 0 2
0 0 0 0 0 0 0 0 0 0 0 0 0 0 0 0 0 0 0 0 0 0 0 0 0 0 0 0 0 0 0 0 0 0 0 0 0 1 2 5 0 0 1
0 0 0 0 0 0 0 0 0 0 0 0 0 0 0 0 0 0 0 0 0 0 0 0 0 0 0 0 0 0 0 0 0 0 0 0 1 3 5 0 0 6 0
0 0 0 0 0 0 0 0 0 0 0 0 0 0 0 0 0 0 0 0 0 0 0 0 0 0 0 0 0 0 0 0 0 0 0 0 6 5 0 0 0 1 5
0 0 0 0 0 0 0 0 0 0 0 0 0 0 0 0 0 0 0 0 0 0 0 0 0 0 0 0 0 0 0 0 0 0 0 4 4 0 0 0 2 6 7
0 0 0 0 0 0 0 0 0 0 0 0 0 0 0 0 0 0 0 0 0 0 0 0 0 0 0 0 0 0 0 0 0 0 0 2 0 2 0 0 0 9 5
0 0 0 0 0 0 0 0 0 0 0 0 0 0 0 0 0 0 0 0 0 0 0 0 0 0 0 0 0 0 0 0 0 0 0 0 0 0 0 1 2 1 5
0 0 0 0 0 0 0 0 0 0 0 0 0 0 0 0 0 0 0 0 0 0 0 0 0 0 0 0 0 0 0 0 0 0 0 0 1 5 0 1 8 12 12
0 0 0 0 0 0 0 0 0 0 0 0 0 0 0 0 0 0 0 0 0 0 0 0 0 0 0 0 0 0 0 0 0 0 1 2 2 3 7 10 8 10 9
0 0 0 0 0 0 0 0 0 0 0 0 0 0 0 0 0 0 0 0 0 0 0 0 0 0 0 0 0 0 0 1 0 0 1 4 4 2 6 8 12 5 0
0 0 0 0 0 0 0 0 0 0 0 0 0 0 0 0 0 0 0 0 0 0 0 0 0 0 0 0 0 0 1 3 4 0 0 1 5 1 6 2 1 2 0
0 0 0 0 0 0 0 0 0 0 0 0 0 0 0 0 0 0 0 0 0 0 0 0 0 0 0 0 0 0 0 1 0 1 2 2 6 5 0 0 0 0 0
0 0 0 0 0 0 0 0 0 0 0 0 0 0 0 0 0 0 0 0 0 0 0 0 0 0 0 0 0 0 0 0 1 5 4 3 0 0 0 0 0 0 0
0 0 0 0 0 0 0 0 0 0 0 0 0 0 0 0 0 0 0 0 0 0 0 0 0 0 0 0 1 0 1 0 0 2 0 0 0 0 0 0 0 0 0
0 0 0 0 0 0 0 0 0 0 0 0 0 0 0 0 0 0 0 0 0 0 0 0 0 0 0 0 0 0 0 0 0 0 0 0 0 0 1 0 0 0 0
0 0 0 0 0 0 0 0 0 0 0 0 0 0 0 0 0 0 0 0 0 0 0 0 0 0 0 0 0 0 0 0 0 0 0 0 3 3 1 0 0 0 0
0 0 0 0 0 0 0 0 0 0 0 0 0 0 0 0 0 0 0 0 0 0 0 0 0 0 0 0 0 0 1 0 0 0 3 4 2 2 2 3 3 2 3
CIN
-0 -0 -0 -0 -0 -0 -0 -0 -0 -0 -0 -0 -0 -0 -0 -0 -0 -4 -0 -0 -0 -0 -1 -0 -0 -1 -0 -0 -0 -0 -0 -0 -0 -0 -0 -35 -35 -30 -17 -14 -25 -61 -91
-0 -0 -0 -0 -0 -0 -0 -0 -0 -0 -0 -0 -0 -0 -0 -0 -0 -0 -5 -0 -0 -0 -0 -0 -0 -0 -1 -0 -0 -0 -0 -0 -0 -0 -0 -12 -11 -83 -0 -46 -35 -35 -57
-0 -0 -0 -0 -0 -0 -0 -0 -0 -0 -0 -0 -0 -0 -0 -0 -0 -0 -0 -0 -0 -0 -0 -0 -2 -0 -0 -0 -1 -0 -0 -0 -0 -0 -0 -0 -0 -0 -67 -108 -0 -0 -0
-0 -0 -0 -0 -0 -0 -0 -0 -0 -0 -0 -0 -0 -0 -0 -0 -0 -0 -0 -0 -0 -0 -0 -0 -0 -0 -0 -0 -0 -0 -2 -1 -0 -0 -0 -0 -0 -0 -0 -0 -0 -0 -1
-0 -0 -0 -0 -0 -0 -0 -0 -0 -0 -0 -0 -0 -0 -0 -0 -0 -0 -0 -0 -0 -0 -0 -0 -0 -0 -0 -0 -0 -0 -0 -0 -2 -1 -0 -3 -1 -7 -0 -0 -0 -0 -0
-0 -0 -0 -0 -0 -0 -0 -0 -0 -0 -0 -0 -0 -0 -0 -0 -0 -0 -0 -0 -0 -0 -0 -0 -0 -0 -0 -0 -0 -0 -0 -0 -0 -0 -5 -0 -2 -2 -1 -0 -1 -0 -0
-0 -0 -0 -0 -0 -0 -0 -0 -0 -0 -0 -0 -0 -0 -0 -0 -0 -0 -0 -0 -0 -0 -0 -0 -0 -0 -0 -0 -0 -0 -0 -0 -0 -0 -1 -0 -2 -8 -4 -2 -0 -0 -0
-0 -0 -0 -0 -0 -0 -0 -0 -0 -0 -0 -0 -0 -0 -0 -0 -0 -0 -0 -0 -0 -0 -0 -0 -0 -0 -0 -0 -0 -0 -0 -0 -0 -0 -0 -0 -0 -3 -0 -3 -3 -0 -0
-0 -0 -0 -0 -0 -0 -0 -0 -0 -0 -0 -0 -0 -0 -0 -0 -0 -0 -0 -0 -0 -0 -0 -0 -0 -0 -0 -0 -0 -0 -0 -0 -0 -0 -0 -0 -0 -0 -0 -2 -11 -5 -1
-0 -0 -0 -0 -0 -0 -0 -0 -0 -0 -0 -0 -0 -0 -0 -0 -0 -0 -0 -0 -0 -0 -0 -0 -0 -0 -0 -0 -0 -0 -0 -0 -0 -0 -0 -0 -0 -1 -0 -2 -2 -0 -1
-0 -0 -0 -0 -0 -0 -0 -0 -0 -0 -0 -0 -0 -0 -0 -0 -0 -0 -0 -0 -0 -0 -0 -0 -0 -0 -0 -0 -0 -0 -0 -0 -0 -0 -0 -0 -1 -3 -4 -5 -0 -0 -0
-0 -0 -0 -0 -0 -0 -0 -0 -0 -0 -0 -0 -0 -0 -0 -0 -0 -0 -0 -0 -0 -0 -0 -0 -0 -0 -0 -0 -0 -0 -0 -0 -0 -0 -0 -0 -0 -4 -3 -0 -0 -2 -0
-0 -0 -0 -0 -0 -0 -0 -0 -0 -0 -0 -0 -0 -0 -0 -0 -0 -0 -0 -0 -0 -0 -0 -0 -0 -0 -0 -0 -0 -0 -0 -0 -0 -0 -0 -0 -2 -6 -0 -0 -0 -2 -0
-0 -0 -0 -0 -0 -0 -0 -0 -0 -0 -0 -0 -0 -0 -0 -0 -0 -0 -0 -0 -0 -0 -0 -0 -0 -0 -0 -0 -0 -0 -0 -0 -0 -0 -0 -3 -11 -0 -0 -0 -2 -0 -0
-0 -0 -0 -0 -0 -0 -0 -0 -0 -0 -0 -0 -0 -0 -0 -0 -0 -0 -0 -0 -0 -0 -0 -0 -0 -0 -0 -0 -0 -0 -0 -0 -0 -0 -0 -1 -0 -9 -0 -0 -0 -1 -0
-0 -0 -0 -0 -0 -0 -0 -0 -0 -0 -0 -0 -0 -0 -0 -0 -0 -0 -0 -0 -0 -0 -0 -0 -0 -0 -0 -0 -0 -0 -0 -0 -0 -0 -0 -0 -0 -0 -1 -3 -13 -11 -4
-0 -0 -0 -0 -0 -0 -0 -0 -0 -0 -0 -0 -0 -0 -0 -0 -0 -0 -0 -0 -0 -0 -0 -0 -0 -0 -0 -0 -0 -0 -0 -0 -0 -0 -0 -0 -0 -3 -0 -0 -3 -2 -4
-0 -0 -0 -0 -0 -0 -0 -0 -0 -0 -0 -0 -0 -0 -0 -0 -0 -0 -0 -0 -0 -0 -0 -0 -0 -0 -0 -0 -0 -0 -0 -0 -0 -0 -1 -0 -0 -1 -4 -0 -0 -0 -1
-0 -0 -0 -0 -0 -0 -0 -0 -0 -0 -0 -0 -0 -0 -0 -0 -0 -0 -0 -0 -0 -0 -0 -0 -0 -0 -0 -0 -0 -0 -0 -1 -0 -0 -0 -0 -1 -2 -5 -1 -0 -1 -0
-0 -0 -0 -0 -0 -0 -0 -0 -0 -0 -0 -0 -0 -0 -0 -0 -0 -0 -0 -0 -0 -0 -0 -0 -0 -0 -0 -0 -0 -0 -4 -1 -1 -1 -0 -1 -1 -5 -6 -1 -0 -0 -0
-0 -0 -0 -0 -0 -0 -0 -0 -0 -0 -0 -0 -0 -0 -0 -0 -0 -0 -0 -0 -0 -0 -0 -0 -0 -0 -0 -0 -0 -0 -0 -7 -1 -1 -1 -0 -2 -3 -0 -0 -0 -0 -0
-0 -0 -0 -0 -0 -0 -0 -0 -0 -0 -0 -0 -0 -0 -0 -0 -0 -0 -0 -0 -0 -0 -0 -0 -0 -0 -0 -0 -0 -0 -0 -2 -0 -0 -1 -0 -0 -0 -0 -0 -0 -0 -0
-0 -0 -0 -0 -0 -0 -0 -0 -0 -0 -0 -0 -0 -0 -0 -0 -0 -0 -0 -0 -0 -0 -0 -0 -0 -0 -0 -0 -2 -0 -4 -2 -0 -1 -5 -0 -0 -0 -0 -0 -0 -0 -0
-0 -0 -0 -0 -0 -0 -0 -0 -0 -0 -0 -0 -0 -0 -0 -0 -0 -0 -0 -0 -0 -0 -0 -0 -0 -0 -0 -0 -0 -0 -0 -0 -0 -0 -0 -0 -0 -1 -14 -0 -0 -0 -0
-0 -0 -0 -0 -0 -0 -0 -0 -0 -0 -0 -0 -0 -0 -0 -0 -0 -0 -0 -0 -0 -0 -0 -0 -0 -0 -0 -0 -0 -0 -0 -2 -0 -0 -0 -0 -1 -3 -8 -0 -0 -0 -0
-0 -0 -0 -0 -0 -0 -0 -0 -0 -0 -0 -0 -0 -0 -0 -0 -0 -0 -0 -0 -0 -0 -0 -0 -0 -0 -0 -0 -0 -0 -9 -1 -0 -0 -0 -0 -1 -1 -1 -1 -1 -2 -1
Wind_Speed
10 9 9 8 8 8 9 10 11 12 8 7 6 6 6 6 7 7 10 10 10 10 11 9 9 8 8 9 10 8 11 7 12 7 10 10 12 14 13 11 11 13 14
9 8 9 8 9 8 8 9 10 11 9 6 6 4 4 6 6 6 8 9 10 10 9 10 9 10 8 10 10 10 5 4 9 6 7 7 5 8 13 10 9 13 12
11 10 8 9 8 7 6 7 9 10 9 7 7 5 5 7 6 6 7 9 11 11 10 10 8 8 7 7 8 8 9 6 5 9 6 6 5 12 5 9 9 11 10
11 10 9 9 9 7 7 8 9 9 10 10 7 9 7 6 6 5 5 5 7 10 9 10 9 8 6 7 8 6 5 6 8 4 4 1 3 6 8 10 9 14 12
12 10 9 8 9 8 5 6 9 10 9 8 8 7 7 6 5 5 7 7 7 10 12 10 6 6 6 7 6 6 7 6 5 5 7 4 4 3 3 8 15 12 10
11 10 9 9 9 8 6 5 9 10 8 7 8 7 7 7 6 6 5 5 5 6 10 9 8 8 8 9 9 7 7 8 5 5 6 8 7 8 4 6 8 13 13
11 11 10 9 9 8 4 6 8 10 8 7 8 8 6 7 7 7 6 6 6 5 8 8 8 7 8 8 9 8 7 9 8 9 6 6 6 5 7 8 10 12 11
11 10 10 9 8 7 6 6 8 9 7 6 7 6 7 5 5 6 5 5 5 5 7 7 8 8 8 9 9 7 6 8 7 10 8 6 7 7 7 5 9 13 11
12 11 10 9 8 8 6 5 7 7 6 5 4 5 5 5 5 6 6 5 6 7 7 7 7 7 7 7 7 7 7 8 7 7 8 7 6 7 7 7 2 5 11
13 12 11 9 8 9 7 4 5 6 5 5 4 5 5 6 6 6 7 7 6 6 6 6 7 7 6 7 6 6 7 9 7 7 8 7 7 7 6 7 7 8 10
14 12 12 10 10 9 8 5 4 5 5 4 5 5 5 6 6 5 5 5 6 6 6 7 7 7 7 7 6 8 10 10 10 9 9 10 9 7 7 6 7 9 10
14 13 12 12 10 9 9 6 5 5 4 4 4 5 5 5 5 5 6 6 6 6 6 6 6 7 7 6 7 10 10 11 12 11 11 11 9 9 6 7 10 8 11
16 15 13 12 11 10 9 9 7 5 4 4 3 4 4 5 5 5 5 5 5 6 6 6 6 7 7 7 8 9 10 11 11 11 11 12 10 8 8 8 8 9 8
17 15 13 13 12 11 9 9 7 6 4 3 2 5 3 3 4 4 4 5 5 5 6 6 6 6 7 6 7 9 10 11 11 11 12 10 9 10 9 9 10 10 10
18 16 15 13 12 11 10 9 9 7 5 4 2 4 3 1 4 3 3 4 5 5 5 6 6 6 6 6 6 7 10 11 12 11 12 9 12 6 13 9 10 11 11
19 17 17 16 14 13 11 10 9 8 7 5 4 3 2 0 4 3 3 5 5 5 5 6 6 6 6 6 8 7 9 12 11 12 12 12 14 14 17 18 14 11 12
19 18 17 16 14 13 12 10 9 8 7 5 5 4 3 0 3 3 5 5 5 5 5 5 5 6 5 7 9 11 9 10 11 13 12 12 11 15 16 18 15 14 15
19 18 15 14 14 13 12 11 10 9 7 7 6 5 4 2 3 1 2 3 4 4 5 5 5 5 4 8 8 9 10 10 12 12 13 15 17 16 15 14 15 15 15
17 15 14 13 13 13 12 11 10 10 9 7 6 5 3 2 1 2 3 4 4 4 4 5 6 6 4 5 7 11 10 11 13 13 14 15 16 18 19 15 17 17 14
16 16 16 14 14 13 13 11 11 10 9 7 6 5 3 1 1 2 3 3 4 5 4 6 6 8 8 10 10 12 8 11 11 14 14 16 15 22 22 18 16 16 14
17 17 16 14 14 13 13 11 10 9 7 7 5 5 3 1 1 1 2 3 4 5 5 6 7 8 7 9 12 11 8 9 13 13 12 12 20 24 27 27 15 16 17
19 18 15 14 14 13 13 12 11 7 6 7 6 5 4 1 1 2 3 3 4 5 6 6 5 4 5 6 8 9 12 18 14 14 13 14 25 28 27 21 22 23 16
18 17 16 15 14 14 13 13 10 9 8 7 6 5 4 3 0 2 2 3 4 3 4 4 5 5 4 5 8 10 16 18 12 12 18 26 26 25 18 17 19 14 8
18 18 17 16 15 14 14 11 11 11 10 8 6 5 5 3 1 1 2 1 1 2 3 4 5 6 6 5 5 8 9 14 13 14 13 15 17 14 11 11 10 8 8
17 17 16 15 15 15 13 12 10 12 10 9 7 5 4 3 1 1 0 1 1 1 3 4 4 5 6 5 11 12 10 13 14 15 10 9 10 11 11 10 10 9 9
16 16 16 15 15 15 14 13 12 12 10 8 5 5 4 2 0 1 2 5 9 7 8 10 8 7 10 15 14 13 20 23 22 10 10 11 10 11 12 12 11 10 11
Wind_Direction
93 96 100 98 90 81 66 48 45 17 23 23 23 27 57 41 54 61 48 48 34 25 30 24 23 21 28 21 17 0 352 345 356 323 333 297 286 282 280 272 267 266 263
122 93 81 66 51 57 58 60 62 45 16 42 10 15 50 47 46 46 70 49 40 31 36 27 28 26 18 17 19 26 1 353 6 325 282 315 299 13 322 308 324 338 338
142 139 127 118 101 75 63 65 61 68 32 25 30 13 26 57 33 41 24 46 45 22 30 28 27 32 28 18 8 16 21 5 350 17 26 333 351 320 347 340 347 7 339
141 132 128 118 101 89 66 74 62 50 61 22 42 28 55 51 38 33 36 49 49 38 32 22 26 16 31 18 6 5 18 5 11 348 18 195 303 342 324 329 357 351 337
150 146 126 111 97 96 89 78 77 68 59 50 38 45 40 35 47 33 33 35 33 45 18 18 22 26 22 10 3 15 30 7 349 348 343 351 349 57 265 326 330 326 337
151 140 136 123 101 90 86 80 84 73 67 60 48 50 41 59 32 42 32 23 30 32 19 11 15 13 17 11 356 20 23 9 3 355 356 357 347 340 330 307 326 316 330
155 152 159 130 105 99 83 100 79 80 71 62 62 36 43 42 56 27 35 27 20 25 16 10 9 12 19 11 355 20 14 3 359 359 4 348 332 327 340 332 327 329 318
159 171 152 125 120 105 99 87 84 82 84 73 67 63 35 37 43 44 31 28 22 15 17 9 4 11 18 8 356 8 15 0 356 346 6 348 342 353 339 330 345 330 328
168 166 135 129 138 119 107 75 100 93 79 71 83 71 61 51 42 44 37 24 20 8 11 5 359 6 15 11 0 4 8 358 355 344 348 347 341 347 335 337 324 309 315
170 167 150 152 140 121 116 132 109 104 100 92 48 56 46 43 42 40 31 25 9 7 358 1 358 3 9 358 3 3 8 353 349 351 340 345 334 330 338 323 347 339 321
172 162 159 157 138 143 144 151 121 119 105 93 85 65 48 39 44 42 29 27 3 356 354 360 356 359 4 352 10 10 5 350 343 341 344 337 332 335 328 351 345 330 313
169 163 159 156 149 152 151 155 125 130 123 108 77 61 53 40 37 33 18 15 6 350 353 358 354 356 358 344 30 13 0 349 344 338 336 332 328 328 351 346 329 322 327
170 166 163 162 159 165 165 155 169 133 113 89 94 80 51 42 29 26 11 7 0 342 0 352 357 357 354 357 24 8 355 341 332 331 327 319 319 354 346 347 344 324 338
173 170 166 169 168 166 167 158 149 143 141 133 125 97 61 35 41 26 5 4 354 350 358 350 353 356 343 36 10 1 346 338 328 326 314 317 1 356 8 343 332 338 322
176 171 172 172 169 166 163 168 152 156 160 155 159 117 104 72 60 27 357 4 359 354 344 349 352 344 329 39 17 356 346 331 325 317 324 336 351 1 357 340 329 320 317
177 175 176 172 172 170 167 173 158 160 166 172 154 127 142 83 81 358 12 17 358 346 344 348 344 347 354 56 42 15 338 327 329 327 339 338 330 346 326 322 298 285 299
179 179 179 174 172 170 171 166 164 159 172 165 165 165 170 202 87 356 32 4 335 326 333 337 329 348 348 80 47 2 336 338 338 336 337 328 324 325 320 317 313 305 292
184 180 176 170 168 166 170 162 169 164 180 180 173 173 179 209 135 75 26 333 301 327 322 316 342 342 43 73 34 346 350 337 330 327 324 321 321 320 320 326 317 309 304
180 175 170 167 166 168 167 167 176 173 178 191 176 178 162 208 309 132 214 269 307 308 307 331 337 336 3 109 23 358 343 330 325 326 323 315 314 316 325 314 311 308 301
173 171 169 166 166 170 164 175 180 181 189 183 174 157 169 205 295 8 338 301 311 311 330 325 337 2 5 9 14 354 336 329 327 321 317 313 310 320 316 312 310 303 298
169 167 169 172 167 167 164 181 182 188 184 152 153 163 164 186 263 340 302 318 312 330 331 347 4 354 360 351 348 339 349 341 328 320 320 317 317 315 311 308 302 292 294
170 169 169 168 163 166 170 180 189 176 155 141 165 170 178 205 343 1 305 327 351 2 350 338 334 320 323 340 329 353 352 336 326 318 313 312 311 309 307 305 294 290 294
171 169 168 164 164 167 175 185 182 164 146 159 175 175 171 181 125 304 4 23 20 329 305 320 333 329 337 336 340 350 329 331 323 309 304 307 308 305 301 293 297 301 297
174 168 167 168 168 170 178 187 175 149 156 175 183 168 166 190 99 235 81 268 257 296 333 341 323 319 322 321 335 323 324 328 323 311 307 300 295 296 300 308 307 304 301
173 169 170 170 170 171 180 182 160 150 168 183 181 174 142 169 204 44 217 278 308 261 275 284 290 303 302 301 311 317 322 328 315 315 307 311 319 320 319 317 314 313 311
168 168 167 169 170 174 180 181 153 160 174 182 167 141 120 128 242 231 271 231 228 229 227 246 247 269 269 290 303 320 326 327 317 318 319 325 323 320 320 318 318 316 315